EW2237 Weather Reports


time (UTC)temp
C
wind
direction
speed
KPH
gust
KPH
rain 1hr
cm
rain 24hr
cm
rain mn
cm
humidity
%
barometer
mb
20260506211826 22 238 3.2 9.7 0.00 0.08 0.08 73 1007.1
20260506211351 22 121 3.2 9.7 0.00 0.08 0.08 72 1007.2
20260506210815 22 250 3.2 14.5 0.00 0.08 0.08 71 1007.0
20260506210318 22 247 4.8 14.5 0.00 0.08 0.08 72 1007.1
20260506205822 22 51 3.2 14.5 0.00 0.08 0.08 71 1007.0
20260506205345 22 94 3.2 9.7 0.00 0.08 0.08 71 1007.1
20260506204827 22 348 1.6 14.5 0.00 0.08 0.08 73 1007.1
20260506204331 21 25 3.2 14.5 0.00 0.08 0.08 73 1007.0
20260506203815 21 164 3.2 9.7 0.00 0.08 0.08 73 1007.1
20260506203318 21 125 3.2 24.1 0.00 0.08 0.08 73 1007.0
20260506202821 21 298 6.4 24.1 0.00 0.08 0.08 72 1006.8
20260506202346 21 27 4.8 17.7 0.00 0.08 0.08 74 1006.8
20260506201829 21 214 4.8 14.5 0.00 0.08 0.08 75 1006.8
20260506201331 21 169 6.4 14.5 0.00 0.08 0.08 77 1006.9
20260506200833 20 145 3.2 12.9 0.00 0.08 0.08 77 1006.9
20260506200313 20 146 3.2 12.9 0.00 0.08 0.08 77 1006.9
20260506195836 20 165 3.2 14.5 0.00 0.08 0.08 78 1007.0
20260506195339 20 86 4.8 14.5 0.00 0.08 0.08 78 1007.1
20260506194820 20 178 6.4 14.5 0.00 0.08 0.08 78 1007.2
20260506194340 20 163 3.2 12.9 0.00 0.08 0.08 78 1007.2
20260506193822 19 139 3.2 12.9 0.00 0.08 0.08 78 1007.2
20260506193326 19 158 4.8 17.7 0.00 0.08 0.08 78 1007.4
20260506192815 19 158 4.8 17.7 0.00 0.08 0.08 78 1007.4
20260506192320 19 149 0.0 6.4 0.00 0.08 0.08 79 1007.5
20260506191823 19 156 1.6 16.1 0.00 0.08 0.08 79 1007.7
20260506191327 19 167 6.4 22.5 0.00 0.08 0.08 79 1007.6
20260506190847 19 163 0.0 22.5 0.00 0.08 0.08 79 1007.7
20260506190315 19 314 3.2 16.1 0.00 0.08 0.08 79 1007.7
20260506185834 19 121 3.2 16.1 0.00 0.08 0.08 79 1007.7
20260506185316 19 112 4.8 14.5 0.00 0.08 0.08 79 1007.7
20260506184821 18 166 1.6 12.9 0.00 0.08 0.08 80 1007.6
20260506184324 18 309 3.2 14.5 0.00 0.08 0.08 80 1007.7
20260506183813 18 144 4.8 14.5 0.00 0.08 0.08 80 1007.8
20260506183316 18 1 3.2 12.9 0.00 0.08 0.08 81 1007.9
20260506182819 18 200 6.4 12.9 0.00 0.08 0.08 81 1007.8
20260506182324 18 193 4.8 16.1 0.00 0.08 0.08 81 1007.9
20260506181827 18 132 4.8 16.1 0.00 0.08 0.08 81 1007.9
20260506181330 18 113 1.6 19.3 0.00 0.08 0.08 81 1008.0
20260506180834 18 155 3.2 19.3 0.00 0.08 0.08 81 1008.0
20260506180318 18 268 3.2 17.7 0.00 0.08 0.08 81 1008.0
20260506175823 18 94 4.8 17.7 0.00 0.08 0.08 82 1008.1
20260506175326 18 209 0.0 16.1 0.00 0.08 0.08 82 1008.0
20260506174829 18 226 4.8 16.1 0.00 0.08 0.08 81 1008.1
20260506174333 18 158 4.8 19.3 0.00 0.08 0.08 81 1008.2
20260506173814 18 21 6.4 19.3 0.00 0.08 0.08 81 1008.2
20260506173319 18 172 8.0 17.7 0.00 0.08 0.08 81 1008.2
20260506172823 18 124 4.8 14.5 0.00 0.08 0.08 80 1008.2
20260506172342 18 182 4.8 22.5 0.00 0.08 0.08 80 1008.2
20260506171823 18 158 4.8 22.5 0.00 0.08 0.08 80 1008.2
20260506171312 18 168 6.4 17.7 0.03 0.08 0.08 80 1008.3
20260506170816 18 242 6.4 16.1 0.03 0.08 0.08 80 1008.4
20260506170321 18 141 6.4 16.1 0.05 0.08 0.08 81 1008.5
20260506165825 18 114 6.4 19.3 0.05 0.08 0.08 81 1008.5
20260506165347 18 184 6.4 19.3 0.05 0.08 0.08 81 1008.5
20260506164850 18 152 6.4 19.3 0.05 0.08 0.08 80 1008.5
20260506164313 18 182 8.0 17.7 0.08 0.08 0.08 81 1008.6
20260506163837 18 170 3.2 19.3 0.08 0.08 0.08 81 1008.6
20260506163320 18 330 4.8 19.3 0.08 0.08 0.08 81 1008.5
20260506162823 18 96 3.2 17.7 0.08 0.08 0.08 81 1008.7
20260506162326 18 136 8.0 17.7 0.08 0.08 0.08 81 1008.7
20260506161830 18 175 3.2 12.9 0.08 0.08 0.08 81 1008.7
20260506161314 18 162 3.2 17.7 0.05 0.05 0.05 80 1008.9
20260506160817 18 104 4.8 17.7 0.05 0.05 0.05 79 1009.1
20260506160320 18 212 1.6 12.9 0.03 0.03 0.03 79 1009.4
20260506155823 18 245 3.2 12.9 0.03 0.03 0.03 78 1009.5
20260506155327 18 152 3.2 17.7 0.03 0.03 0.03 77 1009.7
20260506154814 19 217 4.8 17.7 0.03 0.03 0.03 75 1009.7
20260506154317 19 113 3.2 11.3 0.00 0.00 0.00 75 1009.5
20260506153822 19 152 1.6 11.3 0.00 0.00 0.00 74 1009.6
20260506153326 19 183 3.2 16.1 0.00 0.00 0.00 74 1009.5
20260506152830 19 105 4.8 16.1 0.00 0.00 0.00 73 1009.5
20260506152312 19 205 4.8 12.9 0.00 0.00 0.00 73 1009.4
20260506151813 19 167 3.2 12.9 0.00 0.00 0.00 73 1009.4
20260506151319 20 158 3.2 11.3 0.00 0.00 0.00 72 1009.5
20260506150822 20 133 4.8 11.3 0.00 0.00 0.00 71 1009.4
20260506150346 20 167 1.6 9.7 0.00 0.00 0.00 70 1009.5
20260506145829 20 129 4.8 14.5 0.00 0.00 0.00 68 1009.5
20260506145315 20 155 1.6 14.5 0.00 0.00 0.00 68 1009.4
20260506144818 20 169 4.8 9.7 0.00 0.00 0.00 67 1009.5
20260506144322 20 125 3.2 19.3 0.00 0.00 0.00 67 1009.5
20260506143826 20 115 4.8 19.3 0.00 0.00 0.00 66 1009.4
20260506143328 20 160 3.2 12.9 0.00 0.00 0.00 67 1009.5
20260506142832 20 169 4.8 12.9 0.00 0.00 0.00 67 1009.6
20260506142316 20 58 3.2 20.9 0.00 0.00 0.00 67 1009.6
20260506141819 20 198 6.4 20.9 0.00 0.00 0.00 66 1009.7
20260506141344 20 172 3.2 14.5 0.00 0.00 0.00 66 1009.6
20260506140826 21 99 3.2 12.9 0.00 0.00 0.00 65 1009.4
20260506140330 21 113 4.8 12.9 0.00 0.00 0.00 65 1009.5
20260506135814 21 131 4.8 17.7 0.00 0.00 0.00 64 1009.4
20260506135316 21 143 3.2 17.7 0.00 0.00 0.00 65 1009.4
20260506134819 21 123 3.2 11.3 0.00 0.00 0.00 67 1009.5
20260506134324 20 151 3.2 12.9 0.00 0.00 0.00 67 1009.2
20260506133827 20 155 3.2 12.9 0.00 0.00 0.00 68 1009.4
20260506133332 20 222 4.8 12.9 0.00 0.00 0.00 68 1009.4
20260506132816 20 117 3.2 9.7 0.00 0.00 0.00 68 1009.4
20260506132318 20 144 1.6 11.3 0.00 0.00 0.00 68 1009.5
20260506131822 20 233 3.2 27.4 0.00 0.00 0.00 68 1009.5
20260506131327 20 233 4.8 27.4 0.00 0.00 0.00 68 1009.5
20260506130829 20 90 4.8 19.3 0.00 0.00 0.00 68 1009.6
20260506130313 20 176 3.2 17.7 0.00 0.00 0.00 68 1009.7
20260506125819 20 11 6.4 22.5 0.00 0.00 0.00 67 1009.7
20260506125322 20 140 6.4 22.5 0.00 0.00 0.00 68 1009.7
20260506124826 20 113 6.4 20.9 0.00 0.00 0.00 69 1009.7
20260506124331 20 198 6.4 14.5 0.00 0.00 0.00 70 1009.8
20260506123816 20 124 4.8 16.1 0.00 0.00 0.00 71 1009.7
20260506123319 20 132 6.4 16.1 0.00 0.00 0.00 71 1009.8
20260506122824 20 159 4.8 14.5 0.00 0.00 0.00 71 1009.7
20260506122329 19 204 4.8 17.7 0.00 0.00 0.00 72 1009.8
20260506121834 19 176 4.8 17.7 0.00 0.00 0.00 72 1009.6
20260506121337 19 146 6.4 16.1 0.00 0.00 0.00 72 1009.7
20260506120819 19 164 4.8 12.9 0.00 0.00 0.00 73 1009.7
20260506120324 19 215 6.4 14.5 0.00 0.00 0.00 73 1009.6
20260506115828 18 153 6.4 14.5 0.00 0.00 0.00 74 1009.6
20260506115331 18 112 1.6 9.7 0.00 0.00 0.00 75 1009.6
20260506114815 18 194 4.8 17.7 0.00 0.00 0.00 76 1009.7
20260506114320 18 145 3.2 17.7 0.00 0.00 0.00 75 1009.6
20260506113823 18 218 3.2 20.9 0.00 0.00 0.00 75 1009.5
20260506113327 18 143 6.4 20.9 0.00 0.00 0.00 75 1009.6
20260506112829 18 140 3.2 20.9 0.00 0.00 0.00 76 1009.6
20260506112332 18 177 4.8 12.9 0.00 0.00 0.00 76 1009.6
20260506111816 18 116 4.8 11.3 0.00 0.00 0.00 76 1009.5
20260506111316 18 157 6.4 12.9 0.00 0.00 0.00 76 1009.6
20260506110838 18 155 3.2 12.9 0.00 0.00 0.00 77 1009.5
20260506110340 18 171 6.4 12.9 0.00 0.00 0.00 77 1009.6
20260506105823 18 153 4.8 12.9 0.00 0.00 0.00 77 1009.5
20260506105327 18 224 6.4 19.3 0.00 0.00 0.00 77 1009.6
20260506104828 18 157 4.8 19.3 0.00 0.00 0.00 77 1009.6
20260506104332 17 221 3.2 11.3 0.00 0.00 0.00 78 1009.6
20260506103836 17 153 1.6 11.3 0.00 0.00 0.00 78 1009.5
20260506102826 17 131 1.6 11.3 0.00 0.00 0.00 80 1009.6
20260506102329 17 162 0.0 11.3 0.00 0.00 0.00 80 1009.6
20260506101813 17 124 1.6 11.3 0.00 0.00 0.00 80 1009.6
20260506101318 17 66 4.8 12.9 0.00 0.00 0.00 80 1009.6
20260506100822 17 159 6.4 12.9 0.00 0.00 0.00 80 1009.5
20260506100325 17 141 3.2 9.7 0.00 0.00 0.00 80 1009.5
20260506095830 17 170 3.2 9.7 0.00 0.00 0.00 80 1009.5
20260506095353 17 159 3.2 9.7 0.00 0.00 0.00 80 1009.6
20260506094815 17 158 3.2 9.7 0.00 0.00 0.00 80 1009.7
20260506094340 17 168 3.2 8.0 0.00 0.00 0.00 80 1009.7
20260506093822 17 241 4.8 8.0 0.00 0.00 0.00 80 1009.6
20260506093328 17 211 3.2 8.0 0.00 0.00 0.00 80 1009.5
20260506092852 17 147 1.6 8.0 0.00 0.00 0.00 79 1009.5
20260506092313 17 160 1.6 9.7 0.00 0.00 0.00 79 1009.4
20260506091817 17 162 3.2 9.7 0.00 0.00 0.00 79 1009.4
20260506091318 17 167 3.2 14.5 0.00 0.00 0.00 78 1009.5
20260506090816 17 157 1.6 14.5 0.00 0.00 0.00 78 1009.5
20260506090339 18 167 3.2 14.5 0.00 0.00 0.00 78 1009.5
20260506085842 18 137 4.8 12.9 0.00 0.00 0.00 77 1009.5
20260506085324 18 94 4.8 14.5 0.00 0.00 0.00 77 1009.5
20260506084828 18 155 6.4 14.5 0.00 0.00 0.00 77 1009.6
20260506084332 18 167 4.8 11.3 0.00 0.00 0.00 77 1009.6
20260506083815 18 137 4.8 14.5 0.00 0.00 0.00 77 1009.5
20260506083318 18 190 6.4 17.7 0.00 0.00 0.00 77 1009.6
20260506082821 18 155 6.4 17.7 0.00 0.00 0.00 77 1009.5
20260506082318 18 155 4.8 17.7 0.00 0.00 0.00 77 1009.6
20260506081822 18 146 4.8 9.7 0.00 0.00 0.00 77 1009.7
20260506081328 18 148 4.8 16.1 0.00 0.00 0.00 77 1009.7
20260506080831 18 172 8.0 16.1 0.00 0.00 0.00 77 1009.7
20260506080315 18 248 3.2 12.9 0.00 0.00 0.00 76 1009.7
20260506073313 18 152 3.2 12.9 0.00 0.00 0.00 76 1009.7
20260506072815 18 157 4.8 12.9 0.00 0.00 0.00 76 1009.7
20260506072320 18 159 4.8 9.7 0.00 0.00 0.00 76 1009.7
20260506071824 18 179 3.2 9.7 0.00 0.00 0.00 76 1009.8
20260506071347 18 226 3.2 12.9 0.00 0.00 0.00 76 1009.8
20260506070829 18 161 3.2 12.9 0.00 0.00 0.00 76 1009.9
20260506070334 18 153 1.6 8.0 0.00 0.00 0.00 76 1009.9
20260506062342 18 153 0.0 11.3 0.00 0.00 0.00 75 1010.1
20260506061824 19 154 3.2 11.3 0.00 0.00 0.00 75 1010.0
20260506061326 19 148 1.6 9.7 0.00 0.00 0.00 75 1009.9
20260506060831 19 171 1.6 9.7 0.00 0.00 0.00 75 1009.9
20260506060314 19 172 1.6 9.7 0.00 0.00 0.00 74 1009.9
20260506051327 20 144 4.8 12.9 0.00 0.00 0.00 73 1010.2
20260506050830 20 182 4.8 12.9 0.00 0.00 0.00 73 1010.3
20260506050315 20 176 4.8 14.5 0.00 0.00 0.00 72 1010.3
20260506044825 20 204 4.8 17.7 0.00 0.00 0.00 71 1010.3
20260506044330 20 194 4.8 17.7 0.00 0.00 0.00 70 1010.3
20260506043813 20 193 6.4 17.7 0.00 0.00 0.00 70 1010.3
20260506043318 20 195 6.4 19.3 0.00 0.00 0.00 70 1010.3
20260506042841 20 148 8.0 19.3 0.00 0.00 0.00 70 1010.3
20260506042323 20 217 6.4 17.7 0.00 0.00 0.00 69 1010.4
20260506041826 20 166 6.4 16.1 0.00 0.00 0.00 69 1010.5
20260506041328 20 163 6.4 14.5 0.00 0.00 0.00 69 1010.4
20260506040833 20 160 1.6 9.7 0.00 0.00 0.00 69 1010.4
20260506040314 20 170 4.8 14.5 0.00 0.00 0.00 69 1010.4
20260506035816 20 191 4.8 14.5 0.00 0.00 0.00 69 1010.3
20260506035332 20 247 3.2 14.5 0.00 0.00 0.00 68 1010.3
20260506034834 20 232 4.8 14.5 0.00 0.00 0.00 68 1010.2
20260506034318 20 167 3.2 14.5 0.00 0.00 0.00 68 1010.3
20260506033822 20 214 4.8 14.5 0.00 0.00 0.00 68 1010.3
20260506033326 20 203 4.8 14.5 0.00 0.00 0.00 67 1010.2
20260506032830 20 160 6.4 14.5 0.00 0.00 0.00 67 1010.2
20260506032315 20 133 4.8 14.5 0.00 0.00 0.00 67 1010.3
20260506031817 20 213 8.0 17.7 0.00 0.00 0.00 66 1010.3
20260506031320 20 160 4.8 17.7 0.00 0.00 0.00 66 1010.3
20260506030823 20 174 4.8 14.5 0.00 0.00 0.00 66 1010.3
20260506030327 20 150 1.6 16.1 0.00 0.00 0.00 66 1010.3
20260506025843 20 196 4.8 16.1 0.00 0.00 0.00 65 1010.3
20260506025327 20 126 4.8 19.3 0.00 0.00 0.00 65 1010.3
20260506024814 20 226 3.2 19.3 0.00 0.00 0.00 65 1010.4
20260506024338 20 210 6.4 14.5 0.00 0.00 0.00 64 1010.3
20260506023821 20 167 4.8 22.5 0.00 0.00 0.00 64 1010.4
20260506023324 20 145 6.4 22.5 0.00 0.00 0.00 64 1010.4
20260506022828 20 185 6.4 16.1 0.00 0.00 0.00 63 1010.4
20260506022331 20 147 8.0 16.1 0.00 0.00 0.00 63 1010.3
20260506021814 20 186 6.4 17.7 0.00 0.00 0.00 63 1010.3
20260506021339 21 245 6.4 17.7 0.00 0.00 0.00 63 1010.2
20260506020820 21 135 6.4 16.1 0.00 0.00 0.00 63 1010.3
20260506020322 21 219 4.8 14.5 0.00 0.00 0.00 62 1010.2
20260506015844 21 210 4.8 14.5 0.00 0.00 0.00 62 1010.1
20260506015327 21 177 4.8 12.9 0.00 0.00 0.00 62 1010.1
20260506014832 21 169 3.2 12.9 0.00 0.00 0.00 61 1010.1
20260506014319 21 169 4.8 14.5 0.00 0.00 0.00 61 1010.1
20260506013842 21 165 3.2 14.5 0.00 0.00 0.00 60 1010.0
20260506013326 21 168 6.4 16.1 0.00 0.00 0.00 60 1009.9
20260506012829 21 171 6.4 16.1 0.00 0.00 0.00 59 1009.9
20260506012331 22 224 8.0 14.5 0.00 0.00 0.00 58 1009.8
20260506011815 22 176 6.4 14.5 0.00 0.00 0.00 57 1009.9
20260506011321 22 153 4.8 14.5 0.00 0.00 0.00 55 1009.7
20260506010824 22 150 3.2 17.7 0.00 0.00 0.00 54 1009.6
20260506010350 22 186 6.4 17.7 0.00 0.00 0.00 53 1009.6
20260506005812 23 152 4.8 16.1 0.00 0.00 0.00 51 1009.5
20260506005316 23 122 8.0 16.1 0.00 0.00 0.00 50 1009.6
20260506004817 23 171 6.4 14.5 0.00 0.00 0.00 48 1009.5
20260506004323 23 168 3.2 17.7 0.00 0.00 0.00 47 1009.5
20260506003825 23 166 6.4 17.7 0.00 0.00 0.00 47 1009.4
20260506003322 23 170 4.8 17.7 0.00 0.00 0.00 46 1009.4
20260506002826 23 128 6.4 17.7 0.00 0.00 0.00 46 1009.3
20260506002330 23 151 4.8 9.7 0.00 0.00 0.00 45 1009.2
20260506001834 24 179 3.2 11.3 0.00 0.00 0.00 45 1009.1
20260506001316 24 157 6.4 25.7 0.00 0.00 0.00 44 1009.0
20260506000820 24 160 8.0 25.7 0.00 0.00 0.00 44 1008.9
20260506000345 24 206 6.4 17.7 0.00 0.00 0.00 44 1008.9
20260505235828 24 205 4.8 17.7 0.00 0.00 0.00 44 1008.9
20260505235312 24 17 9.7 17.7 0.00 0.00 0.00 43 1008.8
20260505234816 25 172 6.4 14.5 0.00 0.00 0.00 43 1008.9
20260505234320 25 177 6.4 17.7 0.00 0.00 0.00 43 1008.9
20260505233824 25 212 8.0 17.7 0.00 0.00 0.00 43 1008.8
20260505233327 25 215 4.8 14.5 0.00 0.00 0.00 43 1008.9
20260505232829 25 203 8.0 17.7 0.00 0.00 0.00 42 1008.8
20260505232314 25 167 4.8 14.5 0.00 0.00 0.00 42 1008.8
20260505231818 25 150 6.4 16.1 0.00 0.00 0.00 41 1008.7
20260505231321 25 213 4.8 16.1 0.00 0.00 0.00 41 1008.6
20260505230827 26 150 6.4 20.9 0.00 0.00 0.00 41 1008.7
20260505230312 26 155 6.4 20.9 0.00 0.00 0.00 41 1008.6
20260505225816 26 99 4.8 20.9 0.00 0.00 0.00 41 1008.6
20260505225320 26 154 6.4 29.0 0.00 0.00 0.00 41 1008.5
20260505224824 26 153 9.7 29.0 0.00 0.00 0.00 41 1008.5
20260505224329 26 139 8.0 20.9 0.00 0.00 0.00 41 1008.5
20260505223812 26 124 11.3 20.9 0.00 0.00 0.00 40 1008.5
20260505223316 26 224 6.4 20.9 0.00 0.00 0.00 41 1008.6
20260505222838 26 150 9.7 20.9 0.00 0.00 0.00 41 1008.6
20260505222321 26 146 4.8 14.5 0.00 0.00 0.00 41 1008.7
20260505221846 26 112 8.0 14.5 0.00 0.00 0.00 41 1008.7
20260505221330 26 141 4.8 16.1 0.00 0.00 0.00 40 1008.7
20260505220813 26 330 8.0 25.7 0.00 0.00 0.00 40 1008.7
20260505220317 27 128 11.3 25.7 0.00 0.00 0.00 39 1008.6
20260505215842 27 124 9.7 22.5 0.00 0.00 0.00 39 1008.5
20260505215346 27 278 6.4 17.7 0.00 0.00 0.00 39 1008.4
20260505214830 27 155 8.0 22.5 0.00 0.00 0.00 39 1008.4
20260505214315 28 148 6.4 22.5 0.00 0.00 0.00 38 1008.4
20260505213819 28 149 4.8 12.9 0.00 0.00 0.00 38 1008.6
20260505213324 28 145 3.2 24.1 0.00 0.00 0.00 39 1008.5
20260505212827 27 117 8.0 24.1 0.00 0.00 0.00 37 1008.5
20260505212311 27 116 8.0 24.1 0.00 0.00 0.00 36 1008.4